User: anonymous   Login
Location: Unspecified
(0.0000°N, 0.0000°E)
Time: 05:05:51
(UTC+00:00)
Language:

Meteor 2-3 - Orbit

View from above orbital plane
View from above orbital plane
View from above satellite
View from above satellite

Ground track
Ground track

The orbit data is extracted from the following two-line orbital elements,

1 10514U 77117A   18015.94788222 +.00000185 +00000-0 +96710-4 0  9992
2 10514 081.2064 014.3102 0024384 034.5375 325.7374 14.10411382061398
Epoch (UTC): 15 January 2018 22:44:57
Eccentricity: 0.0024384
inclination: 81.2064°
perigee height: 840 km
apogee height: 875 km
right ascension of ascending node: 14.3102°
argument of perigee: 34.5375°
revolutions per day: 14.10411382
mean anomaly at epoch: 325.7374°
orbit number at epoch: 6139

The dashed part of the orbit path shows where the satellite is in the earth's shadow,  

DLR